| time (UTC) | temp F | wind direction | speed MPH | gust MPH | rain 1hr in | rain 24hr in | rain mn in | humidity % | barometer mb |
| 20260903090106 | 45 | 154 | 0.0 | 3.0 | 0.01 | 0.01 | 0.00 | 93 | 1010.5 |
| 20260903084528 | 46 | 160 | 1.0 | 3.0 | 0.00 | 0.00 | 0.00 | 93 | 1010.5 |
| 20260903083032 | 46 | 157 | 2.0 | 4.0 | 0.00 | 0.00 | 0.00 | 94 | 1010.5 |
| 20260903081531 | 47 | 158 | 3.0 | 5.0 | 0.00 | 0.00 | 0.00 | 94 | 1010.4 |
| 20260903080030 | 47 | 150 | 2.0 | 4.0 | 0.00 | 0.00 | 0.00 | 100 | 1010.3 |
| 20260903074533 | 47 | 231 | 1.0 | 4.0 | 0.00 | 0.00 | 0.00 | 100 | 1010.2 |
| 20260903073031 | 47 | 199 | 1.0 | 5.0 | 0.00 | 0.00 | 0.00 | 100 | 1010.0 |
| 20260903071529 | 47 | 132 | 1.0 | 4.0 | 0.00 | 0.00 | 0.00 | 100 | 1010.1 |
| 20260903070030 | 47 | 240 | 0.0 | 2.0 | 0.00 | 0.00 | 0.00 | 100 | 1010.0 |
| 20260903064533 | 47 | 260 | 0.0 | 3.0 | 0.00 | 0.00 | 0.00 | 100 | 1010.0 |
| 20260903063029 | 47 | 3 | 1.0 | 5.0 | 0.00 | 0.00 | 0.00 | 100 | 1010.1 |
| 20260903061530 | 46 | 153 | 0.0 | 4.0 | 0.00 | 0.00 | 0.00 | 100 | 1010.1 |
| 20260903060031 | 47 | 45 | 1.0 | 6.0 | 0.00 | 0.00 | 0.00 | 100 | 1010.1 |
| 20260903054527 | 48 | 55 | 2.0 | 5.0 | 0.00 | 0.00 | 0.00 | 92 | 1010.0 |
| 20260903053105 | 48 | 324 | 0.0 | 4.0 | 0.00 | 0.00 | 0.00 | 92 | 1010.0 |
| 20260903051602 | 49 | 324 | 2.0 | 6.0 | 0.00 | 0.00 | 0.00 | 91 | 1009.8 |
| 20260903050027 | 49 | 23 | 3.0 | 5.0 | 0.00 | 0.00 | 0.00 | 89 | 1009.9 |
| 20260903044531 | 50 | 26 | 1.0 | 4.0 | 0.00 | 0.00 | 0.00 | 87 | 1009.7 |
| 20260903043106 | 52 | 151 | 3.0 | 7.0 | 0.00 | 0.00 | 0.00 | 85 | 1009.6 |
| 20260903041608 | 52 | 238 | 3.0 | 10.0 | 0.00 | 0.00 | 0.00 | 87 | 1009.5 |
| 20260903040029 | 52 | 233 | 3.0 | 7.0 | 0.00 | 0.00 | 0.00 | 88 | 1009.2 |
| 20260903034605 | 52 | 204 | 4.0 | 9.0 | 0.00 | 0.00 | 0.00 | 88 | 1009.1 |
| 20260903033031 | 52 | 220 | 3.0 | 7.0 | 0.00 | 0.00 | 0.00 | 89 | 1009.1 |
| 20260903031531 | 53 | 229 | 4.0 | 9.0 | 0.00 | 0.00 | 0.00 | 90 | 1009.1 |
| 20260903030105 | 54 | 192 | 5.0 | 9.0 | 0.00 | 0.00 | 0.00 | 93 | 1009.0 |
| 20260903023107 | 55 | 122 | 2.0 | 5.0 | 0.00 | 0.00 | 0.00 | 94 | 1008.9 |
| 20260903021529 | 55 | 356 | 0.0 | 4.0 | 0.00 | 0.00 | 0.00 | 94 | 1008.7 |
| 20260903020030 | 56 | 329 | 2.0 | 7.0 | 0.00 | 0.00 | 0.00 | 94 | 1008.4 |
| 20260903014530 | 56 | 312 | 3.0 | 6.0 | 0.00 | 0.00 | 0.00 | 93 | 1008.0 |
| 20260903013040 | 56 | 214 | 1.0 | 3.0 | 0.00 | 0.00 | 0.00 | 93 | 1008.0 |
| 20260903010032 | 56 | 270 | 0.0 | 2.0 | 0.00 | 0.00 | 0.00 | 93 | 1008.1 |
| 20260903004532 | 56 | 261 | 2.0 | 5.0 | 0.00 | 0.00 | 0.00 | 93 | 1008.2 |
| 20260903003033 | 56 | 296 | 4.0 | 7.0 | 0.00 | 0.00 | 0.00 | 92 | 1008.2 |
| 20260903001606 | 56 | 301 | 2.0 | 5.0 | 0.00 | 0.00 | 0.00 | 91 | 1008.2 |
| 20260903000104 | 57 | 290 | 2.0 | 5.0 | 0.00 | 0.00 | 0.00 | 90 | 1008.1 |
| 20260902233102 | 57 | 39 | 2.0 | 4.0 | 0.00 | 0.00 | 0.00 | 90 | 1008.2 |
| 20260902231606 | 57 | 13 | 1.0 | 4.0 | 0.00 | 0.00 | 0.00 | 90 | 1008.4 |
| 20260902230032 | 57 | 337 | 1.0 | 4.0 | 0.00 | 0.00 | 0.00 | 91 | 1008.4 |
| 20260902224528 | 57 | 337 | 1.0 | 3.0 | 0.00 | 0.00 | 0.00 | 91 | 1008.4 |
| 20260902223030 | 57 | 330 | 2.0 | 6.0 | 0.00 | 0.00 | 0.00 | 91 | 1008.2 |
| 20260902221532 | 57 | 324 | 3.0 | 6.0 | 0.00 | 0.00 | 0.00 | 90 | 1008.3 |
| 20260902220029 | 57 | 291 | 4.0 | 7.0 | 0.00 | 0.00 | 0.00 | 88 | 1008.1 |
| 20260902214534 | 57 | 299 | 3.0 | 6.0 | 0.00 | 0.00 | 0.00 | 87 | 1008.0 |
| 20260902213106 | 57 | 315 | 2.0 | 4.0 | 0.00 | 0.00 | 0.00 | 85 | 1007.9 |
| 20260902211530 | 57 | 32 | 3.0 | 6.0 | 0.00 | 0.00 | 0.00 | 85 | 1007.9 |
| 20260902204533 | 57 | 79 | 4.0 | 11.0 | 0.00 | 0.00 | 0.00 | 82 | 1008.0 |
| 20260902203031 | 58 | 45 | 2.0 | 5.0 | 0.00 | 0.00 | 0.00 | 80 | 1008.1 |
| 20260902200030 | 59 | 318 | 5.0 | 7.0 | 0.00 | 0.00 | 0.00 | 72 | 1008.2 |
| 20260902194529 | 60 | 267 | 5.0 | 9.0 | 0.00 | 0.00 | 0.00 | 71 | 1008.2 |
| 20260902193032 | 60 | 327 | 4.0 | 7.0 | 0.00 | 0.00 | 0.00 | 70 | 1008.2 |
| 20260902191532 | 61 | 11 | 2.0 | 5.0 | 0.00 | 0.00 | 0.00 | 71 | 1008.2 |
| 20260902190030 | 61 | 54 | 1.0 | 10.0 | 0.00 | 0.00 | 0.00 | 73 | 1008.2 |
| 20260902184530 | 61 | 108 | 1.0 | 3.0 | 0.00 | 0.00 | 0.00 | 72 | 1008.1 |
| 20260902183032 | 62 | 195 | 0.0 | 3.0 | 0.00 | 0.00 | 0.00 | 70 | 1008.3 |
| 20260902181531 | 61 | 241 | 0.0 | 3.0 | 0.00 | 0.00 | 0.00 | 71 | 1008.1 |
| 20260902174604 | 60 | 312 | 3.0 | 6.0 | 0.00 | 0.00 | 0.00 | 71 | 1008.1 |
| 20260902173107 | 60 | 274 | 5.0 | 7.0 | 0.00 | 0.00 | 0.00 | 71 | 1008.2 |
| 20260902171529 | 60 | 299 | 3.0 | 7.0 | 0.00 | 0.00 | 0.00 | 72 | 1008.3 |
| 20260902170030 | 59 | 300 | 3.0 | 5.0 | 0.00 | 0.00 | 0.00 | 73 | 1008.5 |
| 20260902160030 | 59 | 59 | 2.0 | 4.0 | 0.00 | 0.00 | 0.00 | 73 | 1009.2 |
| 20260902154604 | 57 | 77 | 1.0 | 4.0 | 0.00 | 0.00 | 0.00 | 76 | 1009.4 |
| 20260902153029 | 56 | 238 | 0.0 | 4.0 | 0.00 | 0.00 | 0.00 | 79 | 1009.4 |
| 20260902151530 | 55 | 190 | 0.0 | 3.0 | 0.00 | 0.00 | 0.00 | 81 | 1009.4 |
| 20260902150030 | 55 | 110 | 0.0 | 3.0 | 0.00 | 0.00 | 0.00 | 81 | 1009.6 |
| 20260902144602 | 53 | 154 | 3.0 | 5.0 | 0.00 | 0.00 | 0.00 | 84 | 1009.8 |
| 20260902143028 | 52 | 178 | 2.0 | 4.0 | 0.00 | 0.00 | 0.00 | 85 | 1009.8 |
| 20260902141531 | 50 | 147 | 3.0 | 5.0 | 0.00 | 0.00 | 0.00 | 86 | 1009.8 |
| 20260902140036 | 49 | 159 | 4.0 | 7.0 | 0.00 | 0.00 | 0.00 | 87 | 1009.9 |
| 20260902134530 | 48 | 157 | 3.0 | 4.0 | 0.00 | 0.00 | 0.00 | 86 | 1009.9 |
| 20260902131530 | 48 | 192 | 3.0 | 5.0 | 0.00 | 0.00 | 0.00 | 84 | 1010.0 |
| 20260902124529 | 50 | 192 | 2.0 | 4.0 | 0.00 | 0.00 | 0.00 | 79 | 1010.1 |
| 20260902123033 | 52 | 135 | 3.0 | 6.0 | 0.00 | 0.00 | 0.00 | 79 | 1010.1 |
| 20260902121528 | 53 | 170 | 3.0 | 6.0 | 0.00 | 0.00 | 0.00 | 74 | 1010.2 |
| 20260902120029 | 53 | 256 | 2.0 | 7.0 | 0.00 | 0.00 | 0.00 | 73 | 1010.2 |
| 20260902114532 | 56 | 78 | 3.0 | 7.0 | 0.00 | 0.00 | 0.00 | 70 | 1010.3 |
| 20260902111531 | 57 | 321 | 8.0 | 17.0 | 0.00 | 0.00 | 0.00 | 68 | 1010.1 |
| 20260902110030 | 57 | 308 | 7.0 | 15.0 | 0.00 | 0.00 | 0.00 | 68 | 1010.2 |
| 20260902104530 | 58 | 310 | 6.0 | 12.0 | 0.00 | 0.00 | 0.00 | 67 | 1010.5 |
| 20260902103034 | 58 | 300 | 8.0 | 13.0 | 0.00 | 0.00 | 0.00 | 68 | 1010.6 |
| 20260902101529 | 57 | 300 | 7.0 | 14.0 | 0.00 | 0.00 | 0.00 | 69 | 1010.7 |
| 20260902100033 | 58 | 308 | 6.0 | 11.0 | 0.00 | 0.00 | 0.00 | 69 | 1010.8 |
| 20260902094530 | 58 | 289 | 6.0 | 15.0 | 0.00 | 0.00 | 0.00 | 69 | 1011.0 |
| 20260902093028 | 58 | 289 | 6.0 | 14.0 | 0.00 | 0.00 | 0.00 | 68 | 1011.0 |